RADUGA-1 3 [-]

Last updated on Jan. 22, 2021, 6:27 a.m. UTC

1 22981U 94008A   21021.03660492  .00000037  00000-0  00000-0 0  9999
2 22981  14.8727   3.8002 0004121  28.7101 160.7232  1.00226694 98696
UTC
Height (km)
Latitude
Longitude
Inclination
Orbital Period
UTC large
Height (km)
Speed (km/s)
/
Latitude / Longitude
Inclination (degrees)
Orbital Period (minutes)
Azimuth
Elevation
Range (km)
Doppler Factor
iOS Compass Heading
iOS Angle

Next 30 passes for location: Hong Kong

Rise time Rise Azimuth (degrees) Set time Set Azimuth (degrees) Duration Max altitude (degrees)

No matching passes for this satellites